Regional Weather Roundup
Issued by NWS Kansas City/Pleasant Hill, MO

Home | Current Version | Previous Version | Text Only | Print | Product List | Glossary On
Versions: 1 2 3 4 5 6 7 8 9 10 11 12 13 14 15 16 17 18 19 20 21 22 23 24 25 26 27 28 29 30 31 32 33 34 35 36 37 38 39 40 41 42 43 44 45 46 47 48 49 50
000
ASUS43 KEAX 021211
RWREAX

WEATHER ROUNDUP FOR EASTERN KANSAS AND NORTHWEST MISSOURI
NATIONAL WEATHER SERVICE KANSAS CITY/PLEASANT HILL MO
700 AM CDT THU JUL 02 2015

KSZ040-057-103>105-MOZ028-029-037-043-021300-
...KANSAS CITY METROPOLITAN AREA...

CITY           SKY/WX    TMP DP  RH WIND       PRES   REMARKS
K.C. INTL      CLOUDY    72  68  87 NE9       29.88S FOG
6HR MIN TEMP:  71; 6HR MAX TEMP:  74;

K.C. DOWNTOWN  CLOUDY    73  69  87 NE9       29.87R FOG
6HR MIN TEMP:  73; 6HR MAX TEMP:  77;

LEES SUMMIT    CLOUDY    71  68  90 E9        29.88R
6HR MIN TEMP:  71; 6HR MAX TEMP:  74;

OLATHE - IXD   CLOUDY    72  69  90 E8        29.88S
6HR MIN TEMP:  71; 6HR MAX TEMP:  72;

OLATHE - OJC   CLOUDY    71  68  90 NE8       29.87R
6HR MIN TEMP:  70; 6HR MAX TEMP:  72;

LAWRENCE       CLOUDY    73  69  87 NE8       29.87S

$$

MOZ001>008-011>017-020>025-030>033-038>040-044>046-053-054-021300-
...NORTHERN AND CENTRAL MISSOURI...

CITY           SKY/WX    TMP DP  RH WIND       PRES   REMARKS
ST. JOSEPH     CLOUDY    71  67  87 NE6       29.90S
6HR MIN TEMP:  71; 6HR MAX TEMP:  74;

MOSBY          CLOUDY    72  68  88 NE6       29.88S FOG
HARRISONVILLE  CLOUDY    72  70  94 E6        29.89S
WARRENSBURG    CLOUDY    70  68  94 NE5       29.86S FOG
WHITEMAN AFB   CLOUDY    71  69  92 E9        29.86R
6HR MIN TEMP:  69; 6HR MAX TEMP:  71;

CLINTON        CLOUDY    70  70 100 CALM      29.87R FOG
SEDALIA        CLOUDY    72  68  87 NE10      29.88R
6HR MIN TEMP:  71; 6HR MAX TEMP:  72;

WARSAW         CLOUDY    68  68 100 CALM      29.87R FOG
CHILLICOTHE      N/A     69  66  90 NE7       29.92R
6HR MIN TEMP:  69; 6HR MAX TEMP:  73;

KIRKSVILLE     LGT RAIN  65  62  90 E8        29.94R FOG
6HR MIN TEMP:  65; 6HR MAX TEMP:  68; 6HR PCP: TRACE;


$$

MOZ041-047>049-056>058-063>065-088>090-097-021300-
...EASTERN AND SOUTHERN MISSOURI...

CITY           SKY/WX    TMP DP  RH WIND       PRES   REMARKS
ST. LOUIS INTL LGT RAIN  69  65  86 NE8       29.87R FOG
6HR MIN TEMP:  68; 6HR MAX TEMP:  74; 6HR PCP:  0.03;

SPIRIT OF STL  CLOUDY    70  70 100 NE8       29.85S
COLUMBIA       CLOUDY    71  70  96 NE8       29.86S
JEFFERSON CITY CLOUDY    71  68  90 E6        29.85S
MEXICO         CLOUDY   N/A N/A N/A NE8       29.89
ROLLA          SUNNY     69  68  96 E3        29.85S
LEBANON        SUNNY     72  68  88 E3        29.86R
OSAGE BEACH    SUNNY     68  66  94 NE3       29.86R
SPRINGFIELD    MOSUNNY   70  67  90 SE10      29.85F
BRANSON        CLOUDY    68  66  94 S9        29.90S
JOPLIN         CLEAR     76  71  85 SE5       29.83S
WEST PLAINS    CLOUDY    70  66  87 W12       29.90R

$$

IAZ060-094-KSZ022-034>040-054-083-096-NEZ052-066-093-021300-
...KANSAS...SOUTHEAST NEBRASKA AND IOWA...

CITY           SKY/WX    TMP DP  RH WIND       PRES   REMARKS
TOPEKA         CLOUDY    73  70  90 N7        29.88R
6HR MIN TEMP:  73; 6HR MAX TEMP:  78;

MANHATTAN      CLOUDY    74  70  87 E8        29.88F
EMPORIA        MOCLDY    71  68  90 NE6       29.88R
CHANUTE        MOCLDY    72  69  90 NE6       29.82S
WICHITA        CLOUDY    76  72  87 N6        29.86S
OMAHA          CLOUDY    64  59  83 E6        29.96R
LINCOLN        CLOUDY    67  64  90 E8        29.94F FOG
FALLS CITY     CLOUDY    69  67  93 NE5       29.92R FOG
LAMONI         CLOUDY    63  59  87 NE8       29.94R
DES MOINES     PTSUNNY   59  53  80 E9        29.96S

$$




USA.gov is the U.S. government's official web portal to all federal, state and local government web resources and services.